Flag for Canada Weather past 2 weeks in Rainy River, Ontario, Canada

Now
49 °F

Clear.


Feels Like: 47 °F
Forecast: 51 / 79 °F
Wind: 5 mph from South

Location: Baudette International Airport

Current Time: May 26, 2015 at 5:35:35 AM

Latest Report: May 26, 2015 at 4:53 AM


Visibility: 10 mi

Pressure: 29.84 "Hg

Humidity: 93%

Dew point: 47 °F

Location of Rainy RiverLocation

Historic Weather in Rainy River — Graph

°F

Rainy River temperature yesterday

Maximum temperature yesterday: 68 °F (at 4:53 PM)
Minimum temperature yesterday: 52 °F (at 4:53 AM)
Average temperature yesterday: 60 °F

Past Weeks' High & Low Weather Summary

 TemperatureHumidityPressure
High78 °F (May 23, 2:53 PM)100% (May 15, 6:53 AM)30.42 "Hg (May 15, 6:53 AM)
Low29 °F (May 19, 5:53 AM)20% (May 23, 6:53 PM)29.48 "Hg (May 17, 4:53 PM)
Average51 °F70%30.04 "Hg
* Reported May 11 3:53 AM — May 26 3:53 AM, Rainy River, Weather by CustomWeather, © 2015

Note: Actual official high and low records may vary slightly from our data, if they occured in-between our weather recording intervals... More about our weather records

Advertising

Rainy River weather history for previous 24 hours

 ConditionsComfort  
Time TempWeatherWind HumidityBarometerVisibility
3:53 AM
Tue, May 26
49 °FClear.No wind93%29.83 "Hg7 mi
2:53 AM50 °FClear.6 mph93%29.85 "Hg10 mi
1:53 AM51 °FClear.5 mph92%29.85 "Hg10 mi
12:53 AM52 °FClear.7 mph89%29.83 "Hg10 mi
11:53 PM
Mon, May 25
55 °FClear.6 mph87%29.81 "Hg10 mi
10:53 PM56 °FClear.5 mph84%29.81 "Hg10 mi
9:53 PM59 °FSunny.7 mph75%29.82 "Hg10 mi
8:53 PM62 °FSunny.8 mph70%29.80 "Hg10 mi
7:53 PM64 °FSunny.9 mph70%29.79 "Hg10 mi
6:53 PM66 °FSunny.9 mph65%29.78 "Hg10 mi
5:53 PM67 °FSunny.10 mph59%29.77 "Hg10 mi
4:53 PM68 °FSunny.8 mph55%29.76 "Hg10 mi
3:53 PM67 °FSunny.3 mph59%29.76 "Hg10 mi
2:53 PM65 °FOvercast.9 mph63%29.77 "Hg10 mi
1:53 PM65 °FScattered clouds.7 mph68%29.78 "Hg10 mi
12:53 PM64 °FPartly sunny.5 mph73%29.77 "Hg10 mi
11:53 AM62 °FPassing clouds.No wind70%29.78 "Hg10 mi
10:53 AM60 °FPassing clouds.3 mph78%29.78 "Hg10 mi
9:53 AM59 °FSunny.5 mph81%29.78 "Hg10 mi
8:53 AM58 °FSunny.3 mph84%29.77 "Hg10 mi
7:53 AM56 °FSunny.No wind84%29.78 "Hg10 mi
6:53 AM53 °FSunny.No wind89%29.79 "Hg10 mi
5:53 AM53 °FClear.No wind89%29.80 "Hg10 mi
Weather by CustomWeather, © 2015

See weather overviewHow to use our weather pages